CW3783 Weather Reports


Display with metric or nautical units.
time (UTC)temp
F
wind
direction
speed
MPH
gust
MPH
rain 1hr
in
rain 24hr
in
rain mn
in
humidity
%
barometer
mb
20260504025803 51 242 2.0 5.0 0.00 0.00 0.00 51 1013.4
20260504025304 51 238 2.0 3.0 0.00 0.00 0.00 50 1013.5
20260504024803 51 239 1.0 3.0 0.00 0.00 0.00 50 1013.4
20260504024303 51 244 2.0 3.0 0.00 0.00 0.00 49 1013.4
20260504023803 51 233 3.0 5.0 0.00 0.00 0.00 49 1013.4
20260504022803 51 236 2.0 5.0 0.00 0.00 0.00 52 1013.4
20260504022304 51 219 2.0 3.0 0.00 0.00 0.00 52 1013.4
20260504021803 51 224 2.0 3.0 0.00 0.00 0.00 51 1013.4
20260504021304 52 229 2.0 3.0 0.00 0.00 0.00 51 1013.3
20260504020803 52 234 2.0 3.0 0.00 0.00 0.00 50 1013.2
20260504015804 52 246 2.0 3.0 0.00 0.00 0.00 50 1013.3
20260504015305 52 246 1.0 3.0 0.00 0.00 0.00 49 1013.3
20260504014803 53 246 1.0 2.0 0.00 0.00 0.00 47 1013.3
20260504014303 53 246 1.0 2.0 0.00 0.00 0.00 46 1013.2
20260504013304 53 236 2.0 5.0 0.00 0.00 0.00 44 1013.2
20260504012304 54 237 2.0 3.0 0.00 0.00 0.00 44 1013.1
20260504011804 54 245 2.0 3.0 0.00 0.00 0.00 44 1013.1
20260504011304 55 245 2.0 3.0 0.00 0.00 0.00 43 1013.1
20260504010804 55 245 2.0 3.0 0.00 0.00 0.00 42 1013.0
20260504010304 55 245 2.0 3.0 0.00 0.00 0.00 42 1013.0
20260504005803 56 245 2.0 3.0 0.00 0.00 0.00 42 1013.0
20260504005306 56 245 2.0 3.0 0.00 0.00 0.00 41 1012.9
20260504004803 56 247 2.0 3.0 0.00 0.00 0.00 41 1012.8
20260504003803 56 264 1.0 3.0 0.00 0.00 0.00 40 1012.7
20260504003304 57 254 1.0 3.0 0.00 0.00 0.00 39 1012.7
20260504002803 57 243 2.0 3.0 0.00 0.00 0.00 38 1012.7
20260504002304 57 242 2.0 3.0 0.00 0.00 0.00 37 1012.6
20260504001805 58 247 1.0 3.0 0.00 0.00 0.00 37 1012.6
20260504001304 58 238 1.0 3.0 0.00 0.00 0.00 37 1012.6
20260504000803 58 283 1.0 2.0 0.00 0.00 0.00 37 1012.5
20260503235304 59 258 1.0 3.0 0.00 0.00 0.00 35 1012.4
20260503234803 59 287 2.0 6.0 0.00 0.00 0.00 36 1012.4
20260503234303 59 302 2.0 6.0 0.00 0.00 0.00 35 1012.4
20260503233804 59 289 2.0 6.0 0.00 0.00 0.00 35 1012.3
20260503233303 60 252 2.0 5.0 0.00 0.00 0.00 35 1012.2
20260503232804 60 297 2.0 3.0 0.00 0.00 0.00 34 1012.2
20260503232305 60 275 1.0 3.0 0.00 0.00 0.00 34 1012.1
20260503231804 60 294 2.0 3.0 0.00 0.00 0.00 34 1012.0
20260503231304 60 275 1.0 7.0 0.00 0.00 0.00 33 1012.1
20260503230803 61 294 6.0 8.0 0.00 0.00 0.00 33 1012.1
20260503230303 61 292 3.0 7.0 0.00 0.00 0.00 33 1012.0
20260503225304 61 330 5.0 10.0 0.00 0.00 0.00 32 1012.0
20260503224804 61 348 2.0 3.0 0.00 0.00 0.00 32 1012.1
20260503224303 62 304 5.0 13.0 0.00 0.00 0.00 31 1012.1
20260503223803 62 300 6.0 12.0 0.00 0.00 0.00 31 1012.2
20260503223304 62 300 6.0 13.0 0.00 0.00 0.00 31 1012.1
20260503222803 63 299 6.0 10.0 0.00 0.00 0.00 30 1012.1
20260503222304 63 296 7.0 14.0 0.00 0.00 0.00 30 1012.1
20260503221804 63 256 4.0 12.0 0.00 0.00 0.00 30 1012.1
20260503221303 63 313 4.0 9.0 0.00 0.00 0.00 30 1012.1
20260503220803 64 207 5.0 10.0 0.00 0.00 0.00 29 1012.1
20260503220304 64 324 4.0 13.0 0.00 0.00 0.00 30 1012.2
20260503215803 64 272 3.0 8.0 0.00 0.00 0.00 29 1012.2
20260503215304 64 254 6.0 13.0 0.00 0.00 0.00 29 1012.3
20260503214303 64 273 6.0 10.0 0.00 0.00 0.00 29 1012.1
20260503213803 64 339 5.0 16.0 0.00 0.00 0.00 30 1012.2
20260503213304 64 349 7.0 13.0 0.00 0.00 0.00 29 1012.1
20260503212804 64 307 6.0 12.0 0.00 0.00 0.00 30 1012.2
20260503212305 64 1 5.0 8.0 0.00 0.00 0.00 31 1012.0
20260503211304 64 321 6.0 15.0 0.00 0.00 0.00 32 1012.2
20260503210803 64 296 5.0 13.0 0.00 0.00 0.00 31 1012.1
20260503205803 64 281 6.0 12.0 0.00 0.00 0.00 30 1012.1
20260503204803 63 310 8.0 18.0 0.00 0.00 0.00 31 1012.2
20260503204303 63 288 6.0 15.0 0.00 0.00 0.00 31 1012.2
20260503203803 63 296 7.0 14.0 0.00 0.00 0.00 31 1012.3
20260503203303 63 205 4.0 12.0 0.00 0.00 0.00 30 1012.3
20260503202804 63 295 10.0 20.0 0.00 0.00 0.00 31 1012.5
20260503202304 63 293 5.0 10.0 0.00 0.00 0.00 32 1012.4
20260503201303 63 302 5.0 12.0 0.00 0.00 0.00 32 1012.5
20260503200803 63 329 6.0 13.0 0.00 0.00 0.00 33 1012.6
20260503195803 63 230 2.0 9.0 0.00 0.00 0.00 33 1012.7
20260503195304 63 309 12.0 23.0 0.00 0.00 0.00 33 1012.9
20260503194303 62 321 10.0 16.0 0.00 0.00 0.00 34 1012.9
20260503193803 62 282 7.0 15.0 0.00 0.00 0.00 34 1013.0
20260503193303 61 335 7.0 15.0 0.00 0.00 0.00 37 1013.0
20260503192804 60 329 8.0 15.0 0.00 0.00 0.00 35 1013.1
20260503192305 61 301 9.0 17.0 0.00 0.00 0.00 33 1013.2
20260503191803 62 305 5.0 17.0 0.00 0.00 0.00 33 1013.3
20260503191304 62 279 8.0 14.0 0.00 0.00 0.00 32 1013.4
20260503190803 62 318 6.0 15.0 0.00 0.00 0.00 36 1013.2
20260503190303 62 326 9.0 17.0 0.00 0.00 0.00 36 1013.3
20260503185803 62 275 7.0 16.0 0.00 0.00 0.00 35 1013.3
20260503185304 62 319 9.0 16.0 0.00 0.00 0.00 34 1013.4
20260503184303 62 350 12.0 20.0 0.00 0.00 0.00 35 1013.5
20260503183803 62 312 8.0 12.0 0.00 0.00 0.00 36 1013.6
20260503183303 62 280 8.0 14.0 0.00 0.00 0.00 35 1013.7
20260503182803 62 290 7.0 20.0 0.00 0.00 0.00 35 1013.6
20260503181803 61 284 7.0 16.0 0.00 0.00 0.00 38 1013.7
20260503181303 60 291 10.0 20.0 0.00 0.00 0.00 36 1013.9
20260503180804 60 296 14.0 23.0 0.00 0.00 0.00 37 1013.9
20260503180303 60 346 9.0 16.0 0.00 0.00 0.00 37 1013.9
20260503175804 60 327 6.0 16.0 0.00 0.00 0.00 39 1013.9
20260503174804 59 325 9.0 17.0 0.00 0.00 0.00 39 1014.1
20260503174304 59 332 8.0 15.0 0.00 0.00 0.00 38 1014.0
20260503173804 59 340 9.0 20.0 0.00 0.00 0.00 38 1014.2
20260503173304 59 328 10.0 20.0 0.00 0.00 0.00 38 1014.1
20260503171804 58 310 7.0 13.0 0.00 0.00 0.00 38 1014.2
20260503171304 57 333 7.0 24.0 0.00 0.00 0.00 39 1014.3
20260503170804 58 343 13.0 22.0 0.00 0.00 0.00 36 1014.3
20260503170303 59 5 12.0 21.0 0.00 0.00 0.00 37 1014.1
20260503150804 54 316 9.0 18.0 0.00 0.00 0.00 39 1014.9
20260503150303 55 358 12.0 21.0 0.00 0.00 0.00 40 1014.9
20260503140303 53 352 13.0 21.0 0.00 0.00 0.00 44 1015.2
20260503131304 50 352 7.0 13.0 0.00 0.00 0.00 51 1015.2
20260503130803 50 313 9.0 20.0 0.00 0.00 0.00 51 1015.3
20260503130303 50 356 6.0 21.0 0.00 0.00 0.00 52 1015.3
20260503110804 41 304 8.0 14.0 0.00 0.00 0.00 71 1014.3
20260503110304 41 311 7.0 12.0 0.00 0.00 0.00 71 1014.2
20260503090304 41 299 8.0 13.0 0.00 0.00 0.00 75 1012.7
20260503081303 41 309 5.0 9.0 0.00 0.00 0.00 74 1012.4
20260503080803 41 300 6.0 13.0 0.00 0.00 0.00 74 1012.3
20260503080304 41 302 7.0 12.0 0.00 0.00 0.00 74 1012.2
20260503072804 42 299 8.0 12.0 0.00 0.00 0.00 73 1011.8
20260503072305 42 317 6.0 12.0 0.00 0.00 0.00 73 1011.8
20260503071804 42 296 9.0 12.0 0.00 0.00 0.00 73 1011.8
20260503070804 42 300 6.0 12.0 0.00 0.00 0.00 72 1011.8
20260503070303 42 294 5.0 9.0 0.00 0.00 0.00 71 1011.7
20260503060303 44 298 3.0 6.0 0.00 0.00 0.00 68 1011.6
20260503054803 44 317 3.0 3.0 0.00 0.00 0.00 68 1011.6
20260503054304 44 311 4.0 8.0 0.00 0.00 0.00 67 1011.6
20260503052803 45 306 5.0 8.0 0.00 0.00 0.00 66 1011.8
20260503052305 45 301 3.0 7.0 0.00 0.00 0.00 66 1011.8
20260503051803 45 305 3.0 7.0 0.00 0.00 0.00 66 1011.7
20260503051304 45 311 3.0 7.0 0.00 0.00 0.00 65 1011.7
20260503050803 46 331 3.0 8.0 0.00 0.00 0.00 65 1011.7
20260503050304 46 307 4.0 7.0 0.00 0.00 0.00 64 1011.7
20260503045803 46 316 4.0 8.0 0.00 0.00 0.00 64 1011.7
20260503045305 46 302 3.0 7.0 0.00 0.00 0.00 63 1011.8
20260503044803 47 308 3.0 6.0 0.00 0.00 0.00 63 1011.8
20260503044304 47 297 3.0 3.0 0.00 0.00 0.00 62 1011.9
20260503043803 47 327 3.0 7.0 0.00 0.00 0.00 62 1011.9
20260503043303 47 328 2.0 5.0 0.00 0.00 0.00 62 1011.9
20260503042803 47 319 2.0 3.0 0.00 0.00 0.00 61 1011.9
20260503041804 48 350 4.0 7.0 0.00 0.00 0.00 61 1011.9
20260503041304 48 336 4.0 9.0 0.00 0.00 0.00 60 1011.9
20260503040303 48 334 5.0 5.0 0.00 0.00 0.00 60 1012.0
20260503035803 48 333 6.0 9.0 0.00 0.00 0.00 60 1012.0
20260503035304 49 332 5.0 10.0 0.00 0.00 0.00 60 1012.0
20260503034803 49 354 6.0 12.0 0.00 0.00 0.00 59 1012.0
20260503034303 49 6 5.0 12.0 0.00 0.00 0.00 59 1011.9
20260503033803 49 352 10.0 16.0 0.00 0.00 0.00 59 1011.9
20260503033304 49 353 10.0 15.0 0.00 0.00 0.00 58 1012.0
20260503032804 50 348 9.0 12.0 0.00 0.00 0.00 58 1012.0
20260503032304 50 346 7.0 13.0 0.00 0.00 0.00 57 1012.0
20260503031303 50 335 4.0 7.0 0.00 0.00 0.00 57 1012.0
20260503030803 50 346 7.0 14.0 0.00 0.00 0.00 56 1012.0
20260503030303 51 323 6.0 16.0 0.00 0.00 0.00 55 1011.9